x

9410230 - La Jolla, Ca (ljac1) Weather Station

10:00 - Tue 3rd Mar 2015 All times are PST. -8 hours from GMT.

  • Wind
    7mph, 8mph gusts
  • Sea Temp 62°f
  • Air Temp 58°f
  • Sea Pressure 1014.7mb
  • 9410230 - La Jolla, Ca
  • 9410230 - La Jolla, Ca

More Historic Weather Station data

Upgrade to MSW Pro to gain access to the past 30 days of data for over 8000 Wavebouys and Weather Stations around the globe.

Join Pro

Comparision Forecast

View Surf forecast
   
mar. 03/03 10:00 7 8 mph 1014.7mb 62f 58f
9:54 8 10 mph 1014.6mb 62f 59f
9:48 7 8 mph 1014.6mb 62f 59f
9:42 7 9 mph 1014.6mb 62f 59f
9:36 7 8 mph 1014.5mb 62f 59f
9:30 7 9 mph 1014.5mb 62f 59f
9:24 9 11 mph 1014.4mb 62f 59f
9:18 7 8 mph 1014.3mb 62f 59f
9:12 7 11 mph 1014.2mb 62f 59f
9:06 8 13 mph 1014.2mb 62f 59f
9:00 11 14 mph 1014.1mb 62f 60f
8:54 11 14 mph 1014mb 62f 60f
8:48 11 13 mph 1014mb 62f 60f
8:42 11 13 mph 1014mb 62f 60f
8:36 10 14 mph 1013.9mb 62f 60f
8:30 11 14 mph 1013.9mb 62f 60f
8:24 11 14 mph 1013.8mb 62f 60f
8:18 11 13 mph 1013.8mb 62f 60f
8:12 10 13 mph 1013.7mb 62f 59f
8:06 10 13 mph 1013.6mb 62f 60f
8:00 11 13 mph 1013.6mb 62f 59f
7:54 10 14 mph 1013.5mb 62f 60f
7:48 10 13 mph 1013.5mb 62f 60f
7:42 10 13 mph 1013.5mb 62f 59f
7:36 10 13 mph 1013.4mb 62f 59f
7:30 10 13 mph 1013.4mb 62f 60f
7:24 10 13 mph 1013.3mb 62f 59f
7:18 10 13 mph 1013.3mb 62f 60f
7:12 9 11 mph 1013.3mb 62f 60f
7:06 10 13 mph 1013.3mb 62f 60f
7:00 10 14 mph 1013.2mb 62f 60f
6:54 11 13 mph 1013.1mb 62f 60f
6:48 11 13 mph 1013mb 62f 60f
6:42 11 14 mph 1012.9mb 62f 60f
6:36 10 13 mph 1012.8mb 62f 60f
6:30 11 13 mph 1012.8mb 62f 60f
6:24 10 11 mph 1012.7mb 62f 60f
6:18 11 13 mph 1012.6mb 62f 60f
6:12 9 13 mph 1012.6mb 62f 60f
6:06 10 13 mph 1012.5mb 62f 60f
6:00 10 13 mph 1012.5mb 62f 60f
5:54 10 11 mph 1012.4mb 62f 59f
5:48 9 10 mph 1012.4mb 62f 60f
5:42 8 11 mph 1012.3mb 63f 60f
5:36 9 11 mph 1012.3mb 63f 60f
5:30 9 11 mph 1012.3mb 63f 59f
5:24 8 11 mph 1012.2mb 63f 60f
5:18 9 11 mph 1012.2mb 63f 60f
5:12 8 10 mph 1012.2mb 63f 60f
5:06 9 11 mph 1012.2mb 63f 60f
5:00 9 11 mph 1012.2mb 63f 60f
4:54 10 11 mph 1012.2mb 63f 60f
4:48 9 13 mph 1012.2mb 63f 60f
4:42 9 11 mph 1012.2mb 63f 60f
4:36 9 11 mph 1012.2mb 63f 60f
4:30 9 11 mph 1012.2mb 63f 60f
4:24 9 13 mph 1012.2mb 63f 60f
4:18 10 13 mph 1012.2mb 63f 60f
4:12 8 13 mph 1012.3mb 63f 60f
4:06 9 11 mph 1012.3mb 63f 60f
4:00 10 13 mph 1012.3mb 63f 60f
3:54 10 13 mph 1012.3mb 63f 61f
3:48 10 13 mph 1012.2mb 63f 60f
3:42 10 14 mph 1012.2mb 63f 60f
3:36 10 13 mph 1012.2mb 63f 61f
3:30 9 13 mph 1012.2mb 63f 61f
3:24 9 11 mph 1012.3mb 63f 61f
3:18 9 11 mph 1012.3mb 63f 61f
3:12 9 11 mph 1012.3mb 63f 61f
3:06 8 11 mph 1012.3mb 63f 61f
3:00 10 11 mph 1012.4mb 63f 60f
2:54 9 11 mph 1012.4mb 63f 60f
2:48 9 11 mph 1012.5mb 63f 60f
2:42 9 11 mph 1012.6mb 63f 60f
2:36 9 11 mph 1012.6mb 63f 60f
2:30 9 11 mph 1012.6mb 63f 60f
2:24 9 13 mph 1012.6mb 63f 60f
2:18 9 11 mph 1012.6mb 63f 60f
2:12 10 11 mph 1012.7mb 63f 60f
2:06 9 11 mph 1012.7mb 63f 60f
2:00 9 13 mph 1012.8mb 63f 59f
1:54 9 11 mph 1012.8mb 63f 59f
1:48 9 11 mph 1012.9mb 63f 60f
1:42 10 11 mph 1013mb 63f 60f
1:36 9 11 mph 1013.2mb 63f 60f
1:30 9 11 mph 1013.2mb 63f 60f
1:24 9 11 mph 1013.3mb 63f 60f
1:18 10 13 mph 1013.3mb 63f 60f
1:12 11 13 mph 1013.3mb 62f 60f
1:06 10 13 mph 1013.3mb 62f 60f
1:00 10 14 mph 1013.4mb 62f 60f
12:54 9 13 mph 1013.5mb 62f 60f
12:48 9 11 mph 1013.6mb 62f 60f
12:42 9 13 mph 1013.7mb 62f 60f
12:36 10 13 mph 1013.8mb 62f 60f
12:30 9 11 mph 1013.8mb 62f 60f
12:24 10 11 mph 1013.8mb 62f 60f
12:18 10 11 mph 1013.9mb 62f 60f
12:12 9 10 mph 1013.9mb 62f 60f
12:06 9 10 mph 1014mb 62f 60f
12:00 9 10 mph 1014mb 62f 60f
11:54 8 9 mph 1014mb 62f 60f
11:48 8 10 mph 1014mb 62f 60f
11:42 9 10 mph 1014mb 62f 59f
11:36 9 11 mph 1014mb 62f 59f
11:30 10 11 mph 1014mb 62f 59f
11:24 10 13 mph 1014.1mb 62f 59f
11:18 10 13 mph 1014.1mb 62f 59f
11:12 10 11 mph 1014.1mb 62f 59f
11:06 10 11 mph 1014mb 62f 59f
11:00 8 9 mph 1014mb 62f 59f
10:54 5 6 mph 1013.9mb 62f 60f
10:48 5 6 mph 1014mb 62f 59f
10:42 5 6 mph 1014.1mb 62f 59f
10:36 3 5 mph 1014.2mb 62f 60f
10:30 2 3 mph 1014.3mb 62f 61f
10:24 2 3 mph 1014.4mb 62f 62f
10:18 2 3 mph 1014.4mb 62f 62f
10:12 2 5 mph 1014.5mb 62f 61f
10:06 3 6 mph 1014.5mb 62f 60f
10:00 5
mph
1014.5mb 62f 60f
9:54 5 6 mph 1014.6mb 62f 61f
9:48 5
mph
1014.6mb 62f 62f
9:42 3 5 mph 1014.6mb 62f 62f
9:36 2 3 mph 1014.6mb 62f 62f
9:30 2 3 mph 1014.6mb 62f 62f
9:24 2 3 mph 1014.7mb 61f 61f
9:18 3 5 mph 1014.7mb 61f 60f
9:12 2
mph
1014.7mb 61f 61f
9:06 2
mph
1014.7mb 61f 61f
9:00 2 5 mph 1014.7mb 61f 61f
8:54 1 3 mph 1014.7mb 61f 62f
8:48 1 6 mph 1014.6mb 61f 60f
8:42 5 7 mph 1014.6mb 61f 59f
8:36 7 9 mph 1014.4mb 61f 58f
8:30 6 8 mph 1014.4mb 61f -
8:24 5 9 mph 1014.4mb 61f -
8:18 7 10 mph - - 57f
8:12 9 11 mph - - 56f
8:06 10 13 mph - - 56f
8:00  -  mph 1014.1mb 61f 56f
7:54  -  mph 1014mb 61f 55f
7:48 9 11 mph - 62f 55f
7:42 9 13 mph - 62f 55f
7:36 9 13 mph - 62f 54f
7:30 11 14 mph - 62f 54f
7:24 9 13 mph - 62f 53f
7:18  -  mph 1013.6mb 62f 53f
7:12  -  mph 1013.5mb 62f 53f
7:06  -  mph 1013.5mb 62f 52f
7:00 13 15 mph - - 52f
6:54 13 15 mph - - 52f
6:48 14 15 mph - - -
6:42 13 16 mph - - -
6:36 14 15 mph - - -
6:30  -  mph - - 52f
6:24  -  mph - - 51f
6:18 14 16 mph - 62f -
6:12 14 16 mph - 62f -
6:06 14 16 mph - 62f -
6:00  -  mph 1013.3mb - 52f
5:54  -  mph 1013.3mb - 52f
5:48 11 15 mph - - 51f
5:42 13 15 mph - - 52f
5:36 11 14 mph - - 52f
5:30  -  mph - 62f -
5:24  -  mph - 62f -
5:18 13 15 mph 1013mb - 51f
5:12 14 17 mph 1013.1mb - 51f
5:06 14 16 mph 1013.1mb - 51f
5:00 11 14 mph - 62f -
4:54 9 11 mph - 62f -
4:48  -  mph 1013mb 62f -
4:42  -  mph 1013mb 62f -
4:36  -  mph 1013.1mb 62f -
4:30  -  mph 1013.1mb - 52f
4:24  -  mph 1013.1mb - 52f
4:18  -  mph 1013.1mb - 51f
4:12  -  mph 1013.2mb - 52f
4:06  -  mph 1013.2mb - 52f
4:00 10 13 mph 1013.1mb 62f 53f
3:54 10 13 mph 1013.1mb 62f 53f
3:48 11 13 mph - 62f -
3:42 10 13 mph - 62f -
3:36 10 14 mph - 62f -
3:30 10 11 mph 1013.1mb 62f -
3:24 10 14 mph 1013.1mb 62f -
3:18  -  mph 1013.1mb 62f 53f
3:12  -  mph 1013.2mb 62f 53f
3:06  -  mph 1013.3mb 62f 54f
3:00  -  mph 1013.3mb 62f 54f
2:54  -  mph 1013.3mb 62f 54f
2:48 10 14 mph - - -
2:42 11 14 mph - - -
2:36 8 10 mph - - -
2:30  -  mph 1013.7mb 62f -
2:24  -  mph 1013.7mb 62f -
2:18 10 13 mph - 62f 54f
2:12 9 14 mph - 62f 54f
2:06 9 14 mph - 62f 53f
2:00 10 13 mph 1014mb 62f -
1:54 10 14 mph 1014mb 62f -
1:48  -  mph 1014.1mb 62f -
1:42  -  mph 1014.2mb 62f -
1:36  -  mph 1014.2mb 62f -
1:30 9 11 mph 1014.3mb - 53f
1:24 8 11 mph 1014.3mb - 53f
1:18  -  mph - - 53f
1:12  -  mph - - 53f
1:06  -  mph - - 53f
1:00  -  mph 1014.4mb 62f 53f
12:54  -  mph 1014.4mb 62f 53f
12:48  -  mph 1014.4mb 62f 53f
12:42 8 10 mph 1014.4mb - 53f
12:36 8 10 mph 1014.5mb - 53f
12:30 8 11 mph 1014.6mb - 53f
12:24 8 11 mph 1014.6mb - 54f
12:18  -  mph - 62f 54f
12:12  -  mph - 62f 54f
12:06  -  mph - 62f 54f
12:00 10 13 mph 1014.8mb - 54f
lun. 03/02 11:54 10 13 mph 1014.8mb - 54f
11:48 10 13 mph 1014.9mb 62f 54f
11:42 9 11 mph 1014.9mb 62f 54f
11:36 10 13 mph 1014.9mb 62f 54f
11:30 10 11 mph 1015mb - 54f
11:24 10 13 mph 1015.1mb - 54f
11:18  -  mph - - 54f
11:12  -  mph - - 54f
11:06  -  mph - - 54f
11:00 11 13 mph - - -
10:54 10 13 mph - - -
10:30 8 10 mph 1015.4mb - 54f
10:24 9 13 mph 1015.4mb - 54f
10:06 10 11 mph - - 54f
10:00 10 11 mph - - 54f
9:54  -  mph - 62f 54f
9:48  -  mph - 62f 54f
9:42  -  mph - 62f 54f
9:36  -  mph - 62f 54f
9:30  -  mph 1015.4mb - -
9:24  -  mph 1015.4mb - -
9:18  -  mph 1015.4mb 62f 54f
9:12  -  mph 1015.5mb 62f 55f
9:06  -  mph 1015.5mb 62f 55f
9:00  -  mph 1015.5mb - -
8:24  -  mph - 62f 56f
8:18  -  mph 1015.3mb 62f 56f
8:12  -  mph 1015.3mb 62f 56f
8:06  -  mph 1015.2mb - 56f
8:00  -  mph 1015.1mb - 56f
7:54 6
mph
1015.1mb 62f 56f
7:48 5 6 mph 1015.1mb 62f 56f
7:42  -  mph - 62f -
7:36  -  mph - 62f -
7:30 6
mph
1015.2mb - 56f
7:24 3 7 mph 1015.2mb - 56f
7:18  -  mph - 62f -
7:12  -  mph - 62f -
7:06  -  mph - 62f -
7:00  -  mph 1015.1mb 62f 56f
6:54  -  mph 1015mb 62f 56f
6:48 5 6 mph - 62f -
6:42 5 6 mph - 62f -
6:36 5
mph
- 62f -
6:30  -  mph - 62f -
6:24  -  mph - 62f -
6:18  -  mph - 62f -
6:12  -  mph - 62f -
6:06  -  mph - 62f -
6:00 1 2 mph 1014.3mb 62f 57f
5:54 1 2 mph 1014.3mb 62f 57f
5:48  -  mph - 62f 57f
5:42  -  mph - 62f 58f
5:36  -  mph - 62f 58f
5:30  -  mph - 62f 59f
5:24  -  mph - 62f 59f
5:18  -  mph 1014.3mb 62f 59f
5:12  -  mph 1014.3mb 62f 59f
5:06  -  mph 1014.3mb 62f 59f
5:00 6
mph
1014.2mb 62f -
4:54 3 6 mph 1014.2mb 62f -
4:48 5 6 mph - 62f -
4:42 5 6 mph - 62f -
4:36 5 6 mph - 62f -
4:30  -  mph 1014.3mb 62f -
4:24  -  mph 1014.2mb 62f -
4:18  -  mph 1014.2mb - 63f
4:12  -  mph 1014.2mb - 63f
4:06  -  mph 1014.2mb - 64f
4:00 2
mph
- 62f -
3:54  -  2 mph - 62f -
3:48 2 3 mph - 62f -
3:42 2 3 mph - 62f -
3:36  -  1 mph - 62f -
3:30 1 3 mph - 62f 60f
3:24  -  3 mph - 62f 59f
3:18 2 5 mph 1014.2mb 62f 58f
3:12 3 6 mph 1014.2mb 62f 57f
3:06 5 6 mph 1014.1mb 62f 56f
3:00 5 6 mph 1014mb 62f 57f
2:54 5 6 mph 1014.1mb 62f 56f
2:48 3 5 mph 1014.1mb 62f 56f
2:42 3 7 mph 1014.2mb 62f 56f
2:36 6 7 mph 1014mb 62f 56f
2:30 5 7 mph 1014.1mb 62f 56f
2:24 5 7 mph 1014.2mb 62f 56f
2:18 6 7 mph 1014.3mb 62f 56f
2:12 2 3 mph 1014.3mb 62f 56f
2:06 3 9 mph 1014.2mb 62f 55f
2:00 9 14 mph 1014.2mb 62f 54f
1:54 7 9 mph 1014.2mb 62f 54f
1:48 8 10 mph 1014.1mb 62f 54f
1:42 9 13 mph 1014.1mb 62f 54f
1:36 10 14 mph 1014.3mb 62f 54f
1:30 15 21 mph 1014.4mb 62f 54f
1:24 20 22 mph 1014.3mb 62f 54f
1:18 17 22 mph 1014.2mb 62f 54f
1:12 18 22 mph 1014.1mb 62f 56f
1:06 15 18 mph 1014.1mb 62f 56f
1:00 10 15 mph 1014mb 62f 58f
12:54 11 14 mph 1014mb 62f 58f
12:48 11 15 mph 1014mb 62f 58f
12:42 11 15 mph 1014.1mb 62f 58f
12:36 11 14 mph 1014.2mb 62f 58f
12:30 13 16 mph 1014.4mb 62f 58f
12:24 13 16 mph 1014.5mb 62f 58f
12:18 10 15 mph 1014.5mb 62f 58f
12:12 14 16 mph 1014.5mb 62f 58f
12:06 11 18 mph 1014.5mb 62f 58f
12:00 13 17 mph 1014.7mb 62f 58f
11:54 14 18 mph 1014.7mb 62f 58f
11:48 14 17 mph 1014.6mb 62f 58f
11:42 15 17 mph 1014.6mb 62f 58f
11:36 15 18 mph 1014.6mb 62f 58f
11:30 13 18 mph 1014.5mb 62f 58f
11:24 11 14 mph 1014.5mb 62f 58f
11:18 11 18 mph 1014.4mb 62f 58f
11:12 13 15 mph 1014.4mb 62f 57f
11:06 10 11 mph 1014.2mb 62f 57f
11:00 7 9 mph 1014.1mb 62f 57f
10:54 7 10 mph 1014.2mb 62f 57f
10:48 6 8 mph 1014.1mb 62f 56f
10:42 8 11 mph 1014.2mb 62f 56f
10:36 10 16 mph 1014.3mb 62f 56f
10:30 15 18 mph 1014.4mb 62f 55f
10:24 14 18 mph 1014.4mb 62f 55f
10:18 11 15 mph 1014.4mb 62f 55f
10:12 15 24 mph 1014.4mb 62f 54f
10:06 25 30 mph 1014.6mb 62f 54f
10:00 26 31 mph 1014.3mb 62f 55f
9:54 14 20 mph 1014.3mb 62f 59f
9:48 10 13 mph 1014.1mb 62f 58f
9:42 11 14 mph 1014mb 62f 58f
9:36 11 14 mph 1014mb 62f 58f
9:30 10 13 mph 1014.1mb 62f 58f
9:24 9 13 mph 1014.1mb 62f 58f
9:18 7 11 mph 1014.1mb 62f 58f
9:12 9 14 mph 1014.1mb 62f 58f
9:06 10 14 mph 1014mb 62f 58f
9:00 9 13 mph 1014mb 62f 58f
8:54 9 14 mph 1013.9mb 62f 57f
8:48 9 14 mph 1013.9mb 62f 57f
8:42 10 13 mph 1013.9mb 62f 56f
8:36 9 13 mph 1013.9mb 62f 56f
8:30 8 10 mph 1013.8mb 62f 55f
8:24 7 10 mph 1013.8mb 62f 55f
8:18 6 8 mph 1013.8mb 61f 55f
8:12 6 11 mph 1013.7mb 62f 54f
8:06 9 13 mph 1013.6mb 62f 54f
8:00 8 11 mph 1013.4mb 62f 54f
7:54 9 14 mph 1013.3mb 62f 54f
7:48 9 15 mph 1013.3mb 62f 54f
7:42 11 14 mph 1013.3mb 62f 53f
7:36 13 16 mph 1013.3mb 62f 53f
7:30 13 16 mph 1013.3mb 62f 53f
7:24 11 15 mph 1013.3mb 62f 53f
7:18 13 16 mph 1013.2mb 62f 53f
7:12 10 15 mph 1013.3mb 62f 53f
7:06 11 16 mph 1013.2mb 62f 53f
7:00 13 15 mph 1013.1mb 62f 53f
6:54 8 10 mph 1013.2mb 62f 52f
6:48 6 13 mph 1013.2mb 62f 53f
6:42 9 13 mph 1013.1mb 62f 53f
6:36 9 11 mph 1013.1mb 62f 53f
6:30 9 15 mph 1013mb 62f 53f
6:24 11 14 mph 1012.9mb 62f 53f
6:18 11 15 mph 1012.9mb 62f 53f
6:12 10 14 mph 1012.9mb 62f 53f
6:06 9 14 mph 1013mb 62f 53f
6:00 10 15 mph 1012.9mb 62f 53f
5:54 10 14 mph 1012.9mb 62f 52f
5:48 10 13 mph 1013mb 62f 52f
5:42 9 14 mph 1012.9mb 62f 52f
5:36 11 15 mph 1012.9mb 62f 52f
5:30 13 16 mph 1012.8mb 62f 52f
5:24 13 16 mph 1012.8mb 62f 52f
5:18 13 16 mph 1012.8mb 62f 52f
5:12 13 16 mph 1012.7mb 62f 52f
5:06 14 16 mph 1012.6mb 62f 52f
5:00 14 16 mph 1012.6mb 62f 52f
4:54 13 16 mph 1012.6mb 62f 52f
4:48 13 15 mph 1012.6mb 62f 52f
4:42 13 14 mph 1012.7mb 62f 51f
4:36 11 14 mph 1012.8mb 62f 51f
4:30 10 14 mph 1012.7mb 62f 51f
4:24 10 14 mph 1012.7mb 62f 51f
4:18 11 14 mph 1012.7mb 62f 52f
4:12 11 14 mph 1012.6mb 62f 52f
4:06 6 7 mph 1012.6mb 62f 52f
4:00 5 9 mph 1012.6mb 62f 52f
3:54 7 9 mph 1012.6mb 62f 52f
3:48 7 8 mph - - -
3:42 5 9 mph 1013mb 62f 51f
3:36 7 11 mph 1012.9mb 62f 51f
3:30 10 13 mph 1012.9mb 62f 51f
3:24 8 9 mph 1013.2mb 62f 52f
3:18 7 9 mph 1013.2mb 62f 52f
3:12 5 7 mph 1013.2mb 62f 52f
3:06 6 7 mph 1013.2mb 62f 52f
3:00 2 3 mph 1013.3mb 62f 52f
2:54 2 6 mph 1013.3mb 62f 52f
2:48 5 7 mph 1013.3mb 62f 52f
2:42 6 7 mph 1013.4mb 62f 52f
2:36 2 5 mph 1013.4mb 62f 52f
2:30 6 7 mph 1013.5mb 62f 52f
2:24 7 9 mph 1013.5mb 62f 52f
2:18 1 11 mph 1013.8mb 62f 52f
2:12 5 7 mph 1013.8mb 62f 53f
2:06 7 10 mph 1013.8mb 62f 53f
2:00 8 9 mph 1013.8mb 62f 53f
1:54 9 10 mph 1013.9mb 62f 53f
1:48 6 10 mph 1013.8mb 62f 53f
1:42 9 11 mph 1013.9mb 62f 53f
1:36 8 15 mph 1013.9mb 62f 54f
1:30 10 15 mph 1013.8mb 62f 54f
1:24 11 16 mph 1013.7mb 62f 53f
1:18 11 18 mph 1013.7mb 62f 54f
1:12 11 16 mph 1013.8mb 62f 53f
1:06 11 14 mph 1013.9mb 62f 53f
1:00 13 15 mph 1013.8mb 62f 53f
12:54 13 14 mph 1013.8mb 62f 54f
12:48 8 13 mph 1013.8mb 62f 54f
12:42 9 13 mph 1013.9mb 62f 54f
12:36 8 13 mph 1014mb 62f 54f
12:30 9 13 mph 1014.1mb 62f 54f
12:24 10 13 mph 1014.1mb 62f 54f
12:18 8 13 mph 1014.1mb 62f 54f
12:12 9 14 mph 1014.1mb 62f 55f
12:06 11 14 mph 1014.2mb 62f 54f
12:00 9 13 mph 1014.1mb 62f 54f
dim. 03/01 11:54 10 13 mph 1014.1mb 62f 54f
11:48 9 13 mph 1014.2mb 62f 54f
11:42 9 14 mph 1014.2mb 62f 55f
11:36 8 11 mph 1014.1mb 62f 55f
11:30 7 10 mph 1014.2mb 62f 55f
11:24 8 10 mph 1014.1mb 62f 55f
11:18 9 11 mph 1014.2mb 62f 55f
11:12 8 10 mph 1014.3mb 62f 55f
11:06 8 9 mph 1014.2mb 62f 55f
11:00 6 11 mph 1014.3mb 62f 55f
10:54 9 10 mph 1014.2mb 62f 55f
10:48 8 9 mph 1014.2mb 62f -
10:24 6 9 mph 1014.4mb 62f 55f
10:00 6 8 mph - 62f 55f
9:42 2 6 mph 1014.5mb 62f 55f
9:36 1 3 mph 1014.3mb 62f 55f
9:30 2 6 mph 1014.5mb 62f 55f
9:24 5 6 mph 1014.3mb 62f 55f
9:18 1 6 mph 1014.5mb 62f 55f
9:12 5 6 mph 1014.7mb 62f 55f
9:06  -  5 mph 1014.7mb 62f 55f
9:00 3 7 mph 1014.5mb 62f 55f
8:42 6 8 mph 1014.7mb 62f 55f
8:36 7 8 mph 1014.5mb 62f 55f
8:30 6 7 mph 1014.3mb 62f 55f
8:24  -  3 mph 1013.8mb 62f 55f
8:00 3 6 mph 1013.8mb 62f 55f
7:54 6 7 mph 1014.1mb 62f 55f
7:48 3 6 mph 1013.8mb 62f 55f
7:30 8 10 mph 1013.4mb 62f 55f
7:24 6 9 mph 1013.6mb 61f 55f
7:00 8 9 mph 1013.7mb 62f 55f
6:54 8 10 mph 1013.6mb 62f 55f
6:48 8 10 mph 1013.5mb 62f 55f
6:42 8 10 mph 1013.6mb 62f 55f
6:36 8 9 mph 1013.7mb 62f 55f
6:30 7 10 mph - - -
6:24 6 8 mph 1013.5mb 62f 55f
6:18 6 7 mph 1013.3mb 62f 55f
6:12 5 7 mph 1013.2mb 62f 55f
5:48 5 8 mph - - -
5:42 7 9 mph 1013.1mb 62f 55f
5:36 8 11 mph 1013.3mb 62f 55f
5:30 8 13 mph 1013.3mb 62f 55f
5:24 6 10 mph 1013.1mb 62f 55f
5:18 8 9 mph 1013.2mb 62f 55f
5:00 8 10 mph 1013.1mb 62f 55f
4:54 7 10 mph 1013.1mb 62f 55f
4:48 8 10 mph 1013.1mb 62f 55f
4:42 7 13 mph 1013mb 62f 55f
4:36 9 14 mph 1012.8mb 62f 56f
4:30 9 13 mph 1013mb 62f 56f
4:24 9 14 mph 1013.2mb 62f 56f
4:18 10 13 mph 1013.2mb 62f 56f
4:12 9 11 mph 1013.2mb 62f 56f
4:06 8 11 mph 1013.3mb 62f 56f
4:00 9 11 mph 1013.1mb 62f 56f
3:54 9 13 mph 1013mb 62f 56f
3:48 10 14 mph 1013.1mb 62f 56f
3:42 10 16 mph 1013.2mb 62f 57f
3:36 13 17 mph 1013.1mb 62f 57f
3:30 11 17 mph 1013.1mb 62f 57f
3:24 10 14 mph 1013mb 62f 57f
3:18 8 14 mph 1012.9mb 62f 57f
3:12 9 14 mph 1012.6mb 62f 57f
3:06 10 13 mph 1012.6mb 62f 57f
3:00 8 11 mph 1012.5mb 62f 57f
2:54 6 11 mph 1012.6mb 62f 57f
2:48 8 14 mph 1012.6mb 62f 56f
2:42 9 14 mph 1012.8mb 62f 56f
2:36 8 13 mph 1013mb 62f 56f
2:30 10 15 mph 1013.1mb 62f 56f
2:24 10 14 mph 1013.2mb 62f 57f
2:18 10 13 mph 1013.2mb 62f 57f
2:12 8 14 mph 1012.9mb 62f 57f
2:06 8 14 mph 1012.9mb 62f 57f
2:00 9 15 mph 1013mb 62f 57f
1:54 11 17 mph 1013mb 62f 57f
1:48 10 14 mph 1013.3mb 62f 57f
1:42 13 16 mph 1013mb 62f 56f
1:36 11 16 mph 1012.5mb 62f 56f
1:30 10 21 mph 1012.2mb 62f 56f
1:24 13 18 mph 1012.5mb 62f 56f
1:18 15 22 mph 1012.5mb 62f 56f
1:12 13 18 mph 1012.5mb 62f 56f
1:06 8 22 mph 1012.6mb 62f 56f
1:00 14 20 mph 1013mb 62f 56f
12:54 13 22 mph 1013mb 62f 56f
12:48 13 18 mph 1013mb 62f 56f
12:42 15 20 mph 1013.2mb 62f 56f
12:36 17 22 mph 1013.5mb 62f 56f
12:30 15 22 mph 1013.4mb 62f 56f
12:24 13 16 mph 1013.6mb 62f 56f
12:18 13 17 mph - - -
12:12 13 16 mph 1014mb 62f 56f
12:06 13 17 mph 1013.9mb 62f 56f
12:00 11 21 mph 1013.9mb 62f 56f
11:54 14 17 mph 1014.1mb 62f 56f
11:48 10 15 mph 1014.2mb 62f 56f
11:42 13 16 mph 1014mb 62f 56f
11:36 9 15 mph 1014.2mb 62f 56f
11:30 9 18 mph 1014.1mb 62f 56f
11:24 13 17 mph 1013.7mb 62f 56f
11:18 11 17 mph 1013.6mb 62f 56f
11:12 14 23 mph 1013.3mb 62f 56f
11:06 16 21 mph 1013.2mb 62f 56f
11:00 16 22 mph 1013.5mb 62f 56f
10:54 13 17 mph 1013.5mb 62f 56f
10:48 13 17 mph 1013.6mb 62f 56f
10:42 15 20 mph 1013.6mb 62f 56f
10:36 14 18 mph 1013.8mb 62f 56f
10:30 15 20 mph 1014mb 62f 56f
10:24 14 20 mph 1014.1mb 62f 56f
10:18 16 21 mph 1014.2mb 62f 55f
10:12 15 20 mph 1014.2mb 62f 55f
10:06 17 24 mph 1014.1mb 62f 55f
10:00 16 24 mph 1014mb 62f -
9:54 16 24 mph 1013.9mb 62f 54f
9:48 17 22 mph 1013.9mb 62f 54f
9:42 16 21 mph 1014.1mb 62f 54f
9:36 15 20 mph 1014.3mb 62f 54f
9:30 16 21 mph 1014.5mb 62f 54f
9:24 14 17 mph 1014.7mb 62f 54f
9:18 13 17 mph 1014.8mb 62f 54f
9:12 10 14 mph 1014.8mb 62f 55f
9:06 10 15 mph 1014.9mb 62f 55f
9:00 11 15 mph 1014.8mb 62f 54f
8:54 9 13 mph 1014.6mb 62f 55f
8:48 6 10 mph 1014.5mb 62f 55f
8:42 8 10 mph 1014.6mb 62f 55f
8:36 7 9 mph 1014.6mb 62f 55f
8:30 6 9 mph 1014.6mb 62f 55f
8:24 6 9 mph 1014.6mb 62f 55f
8:18 6 9 mph 1014.6mb 62f 55f
8:12 7 10 mph 1014.6mb 62f 55f
8:06 8 10 mph 1014.6mb 62f 55f
8:00 8 10 mph 1014.5mb 62f 55f
7:54 8 11 mph 1014.5mb 62f 55f
7:48 9 11 mph 1014.4mb 62f 55f
7:42 9 10 mph 1014.3mb 62f 55f
7:36 9 10 mph 1014.2mb 62f 55f
7:30 8 13 mph 1014.1mb 62f 55f
7:24 9 13 mph 1013.9mb 62f 55f
7:18 10 11 mph 1013.8mb 62f 55f
7:12 8 11 mph 1013.7mb 62f 55f
7:06 11 14 mph 1013.6mb 62f 55f
7:00 11 15 mph 1013.5mb 62f 55f
6:54 9 11 mph 1013.5mb 62f 55f
6:48 7 10 mph 1013.5mb 62f 55f
6:42 10 13 mph 1013.6mb 61f 55f
6:24 8 13 mph 1013.4mb - -
6:18 9
mph
1013.3mb 62f 55f
6:12 7 9 mph 1013.2mb 62f 55f
6:06 7 9 mph 1013.2mb 62f 56f
6:00 9 10 mph 1013.2mb 62f 55f
5:54 7 9 mph 1013.2mb 62f 56f
5:48 8 9 mph 1013.2mb 62f 56f
5:42 8 9 mph 1013.3mb 62f 56f
5:36 6 9 mph 1013.2mb 62f 56f
5:30 8 11 mph 1013.2mb 62f 56f
5:24 8 14 mph 1013.1mb 62f 56f
5:00 8 13 mph 1013mb 62f 56f
4:54 10 13 mph 1012.9mb 62f 56f
4:48 7 10 mph 1012.7mb 63f 56f
4:42 7 9 mph 1012.7mb - -
4:36 6 9 mph 1012.7mb 63f 56f
4:30 9 10 mph 1012.6mb 62f 56f
4:24 9 11 mph 1012.4mb 62f 56f
4:18 8 9 mph 1012.4mb 62f 56f
4:12 8 13 mph 1012.5mb 62f 56f
4:06 11 14 mph 1012.2mb 62f 56f
4:00 8 9 mph 1012.7mb 62f 56f
3:54 7 10 mph 1012.8mb 63f 57f
3:48 9 10 mph 1012.5mb 63f 56f
3:42 9 10 mph 1012.5mb 63f 56f
3:36 8 11 mph 1012.6mb 63f 56f
3:30 10 11 mph 1012.5mb 63f 57f
3:24 8 11 mph 1012.7mb 63f 57f
3:18 9 13 mph 1012.8mb 63f 57f
3:12 9 11 mph 1012.9mb 63f 57f
3:06 6 9 mph 1012.9mb 63f 57f
3:00 9 10 mph 1013mb 63f 57f
2:54 8 10 mph 1013.1mb 63f 57f
2:48 8 10 mph 1013mb 63f 57f
2:42 8 11 mph 1013.1mb 63f 57f
2:36 9 11 mph 1013.1mb 63f 57f
2:30 8 11 mph 1013.1mb 63f 57f
2:24 9 11 mph 1013.1mb 63f 58f
2:18 8 9 mph 1013.3mb 63f 58f
2:12 7 8 mph 1013.4mb 63f 58f
2:06 6 7 mph 1013.4mb 63f 58f
2:00 6
mph
1013.4mb 63f 58f
1:54 6 7 mph 1013.5mb 63f 58f
1:48 7 8 mph 1013.5mb 63f 58f
1:42 5 7 mph 1013.6mb 63f 59f
1:36 6 7 mph 1013.6mb 63f 59f
1:30 6 7 mph 1013.6mb 63f 59f
1:24 5 6 mph 1013.7mb 63f 59f
1:18 5 6 mph 1013.6mb 63f 59f
1:12 6
mph
1013.7mb 63f 59f
1:06 6
mph
1013.7mb 63f 59f
1:00 5 6 mph 1013.6mb 63f 59f
12:54 6 7 mph 1013.5mb 63f 59f
12:48 6 7 mph 1013.5mb 63f 59f
12:42 5 6 mph 1013.4mb 63f 59f
12:24 5 7 mph - - -
12:18 5 7 mph 1013.6mb 63f 59f
12:12 6
mph
1013.6mb 63f 59f
12:06 6
mph
1013.6mb 63f 59f
12:00 6 7 mph 1013.7mb 63f 59f
sam. 02/28 11:54 5 7 mph 1013.6mb 63f 59f
11:48 5 7 mph 1013.6mb 63f 59f
11:42 5 7 mph 1013.6mb 63f 59f
11:36 6 7 mph 1013.6mb 63f 59f
11:30 6 7 mph 1013.5mb 63f 59f
11:24 6 7 mph 1013.6mb 63f 59f
11:18 5 6 mph 1013.6mb 63f 59f
11:12 5 6 mph 1013.5mb 63f 58f
11:06 6
mph
1013.5mb 63f 58f
11:00 5 6 mph 1013.5mb 63f 58f
10:54 6
mph
1013.5mb 63f 58f
10:48 5 6 mph 1013.5mb 63f 58f
10:42 5 7 mph 1013.5mb 63f 58f
10:24 5
mph
1013.4mb 63f 58f
10:18 2 5 mph 1013.3mb 63f 58f
9:54 3 5 mph 1013.2mb 63f 58f
9:48 5 6 mph 1013.3mb 63f 58f
9:42 5 6 mph 1013.2mb 63f 58f
9:36 5 6 mph 1013.2mb 63f 58f
9:30 5 6 mph 1013.2mb 63f 59f
9:24 5 6 mph 1013.1mb 63f 58f
9:18 3 5 mph 1013mb 63f 58f
9:12 2 5 mph 1013mb 63f 58f
9:06 5 6 mph 1013mb 63f 58f
9:00 5 6 mph 1013mb 63f 58f
8:54 5 6 mph 1013mb 63f 58f
8:48 5 7 mph 1012.9mb 63f 58f
8:42 5 6 mph 1012.9mb 63f 58f
8:36 5 7 mph 1012.9mb 63f 59f
8:30 6
mph
1012.9mb 63f 59f
8:24 6 11 mph 1012.8mb 63f 60f
8:18 8 9 mph 1012.7mb 63f 60f
8:12 6 8 mph 1012.7mb 63f 60f
8:06 5 7 mph 1012.7mb 63f 60f
7:48 7 8 mph 1012.7mb 63f 60f
7:42 6 8 mph 1012.7mb 63f 60f
7:36 7 10 mph 1012.7mb 63f 60f
7:30 8 9 mph 1012.7mb 63f 60f
7:24 6 8 mph 1012.6mb 63f 60f
7:18 7 8 mph 1012.6mb 63f 60f
7:12 7 8 mph 1012.5mb 63f 60f
7:06 6 8 mph 1012.5mb 63f 60f
7:00 6 8 mph 1012.5mb 63f 60f
6:54 7 8 mph 1012.5mb 63f 60f
6:48 6 8 mph 1012.4mb 63f 60f
6:42 6 8 mph 1012.4mb 63f 60f
6:36 6 8 mph 1012.3mb 63f 60f
6:30 6 8 mph 1012.3mb 63f 60f
6:24 8 9 mph 1012.3mb 63f 60f
6:18 6 8 mph 1012.3mb 63f 60f
6:12 9 10 mph - - -
6:06 9 10 mph 1012.3mb 63f 60f
6:00 8 10 mph 1012.2mb 63f 60f
5:54 6 8 mph 1012.2mb 63f 60f
5:48 7 10 mph 1012.1mb 63f 60f
5:42 7 9 mph 1012.1mb 63f 60f
5:36 9
mph
1012.1mb 63f 60f
5:30 8 10 mph 1012.1mb 63f 60f
5:24 8 9 mph 1012.1mb 63f 60f
5:18 7 8 mph 1012.1mb 63f 60f
5:12 7 8 mph 1012.1mb 63f 60f
5:06 6 8 mph 1012.1mb 63f 60f
5:00 6 8 mph 1012mb 63f 60f
4:54 7 8 mph 1012.1mb 63f 60f
4:48 7 9 mph 1012.1mb 63f 60f
4:42 8 9 mph 1012.1mb 63f 60f
4:36 9
mph
1012.1mb 63f 60f
4:30 8 10 mph 1012mb 63f 60f
4:24 7 10 mph 1012mb 63f 60f
4:18 9 10 mph 1012mb 63f 60f
4:12 9 10 mph 1012mb 63f 60f
4:06 10 11 mph 1011.9mb 63f 60f
4:00 8 11 mph 1011.9mb 63f 60f
3:54 9 11 mph 1011.9mb 63f 60f
3:48 10 14 mph 1011.9mb 63f 60f
2:54 7 8 mph 1011.8mb 63f 60f
2:48 8 9 mph 1011.8mb 63f 60f
2:42 7 9 mph 1011.9mb 63f 60f
2:36 7 9 mph 1012mb 63f 60f
2:30 8 10 mph 1012mb 63f 60f
2:24 7 10 mph 1012mb 63f 60f
2:18 9 10 mph 1012mb 63f 60f
2:12 9 13 mph - - -
2:06 8 10 mph 1012mb 63f 60f
2:00 9 11 mph 1012.1mb 63f 60f
1:54 8 11 mph 1012.1mb 63f 60f
1:48 6 10 mph 1012.1mb 63f 60f
1:42 8 11 mph 1012.1mb 63f 60f
1:36 7 9 mph 1012.2mb 63f 60f
1:30 7 9 mph 1012.2mb 63f 60f
1:24 9 10 mph 1012.3mb 63f 60f
1:18 7 9 mph 1012.4mb 63f 60f
1:12 9 10 mph 1012.5mb 63f 60f
1:06 9 13 mph 1012.6mb 63f 60f
1:00 9 11 mph 1012.6mb 63f 60f
12:54 9 13 mph 1012.6mb 63f 60f
12:48 13 15 mph 1012.7mb 63f 59f
12:42 10 13 mph 1012.8mb 63f 59f
12:36 11 15 mph 1012.8mb 63f 59f
12:30 13 14 mph 1013mb 63f 59f
12:24 13 14 mph 1013mb 63f 59f
12:18 11 14 mph 1013mb 63f 59f
12:12 3 6 mph 1012.9mb 63f 59f
12:06 3 7 mph 1013mb 63f 58f
12:00 6 8 mph 1013mb 63f 57f
11:54 6 7 mph 1013.1mb 63f 56f
11:48 6 7 mph 1013.3mb 63f 56f
11:42 6 8 mph 1013.5mb 63f 56f
11:36 6 14 mph 1013.5mb 63f 55f
11:30 14 20 mph 1013.6mb 63f 56f
11:24 17 20 mph 1013.6mb 63f 57f
11:18 11 13 mph 1013.4mb 63f 60f
11:12 13 14 mph 1013.3mb 63f 60f
11:06 11 15 mph 1013.4mb 63f 60f
11:00 10 13 mph 1013.4mb 63f 60f
10:54 10 14 mph 1013.4mb 63f 60f
10:48 13 14 mph 1013.4mb 63f 60f
10:42 11 14 mph 1013.4mb 63f 60f
10:36 13 15 mph 1013.4mb 62f 60f
10:30 11 13 mph 1013.3mb 62f 60f
10:24 9 10 mph 1013.2mb 62f 59f
10:18 9 13 mph 1013.2mb 62f 59f
10:00 8 10 mph 1013.1mb 62f 59f
9:54 8 9 mph 1013mb 62f 59f
9:48 6 9 mph 1013.1mb 62f 58f
9:42 9 14 mph 1013.1mb 62f 58f
9:36 16 20 mph 1013.1mb 62f 58f
9:30 9 10 mph 1013mb 62f 60f
9:24 8 10 mph 1013mb 62f 60f
9:18 7 10 mph 1012.9mb 62f 60f
9:12 10 11 mph 1012.9mb 62f 60f
9:06 9 10 mph 1012.9mb 62f 60f
9:00 9 10 mph 1012.8mb 62f 60f
8:54 9 11 mph 1012.7mb 62f 59f
8:48 8 13 mph 1012.6mb 62f 59f
8:42 9 11 mph 1012.6mb 62f 59f
8:36 8 13 mph 1012.4mb 62f 59f
8:30 13 16 mph 1012.4mb - -
8:24 14 18 mph 1012.4mb 62f 59f
8:18 13 15 mph 1012.3mb 62f 60f
8:12 11 14 mph 1012.2mb 62f 60f
8:06 9 13 mph 1012mb 62f 60f
8:00 10 13 mph 1011.9mb 62f 60f
7:54 8 9 mph 1011.8mb 62f 60f
7:48 7 10 mph 1011.7mb 62f 60f
7:42 9 10 mph 1011.7mb 62f 60f
7:36 8 9 mph 1011.7mb 62f 60f
7:30 8 11 mph 1011.6mb 62f 60f
7:24 8 10 mph 1011.5mb 62f 60f
7:18 9 13 mph 1011.4mb 62f 60f
7:12 13 14 mph 1011.3mb 62f 60f
7:06 8 13 mph 1011.2mb 62f 60f